Terminal Aerodrome Forecast
Issued by NWS Sioux Falls, SD

Home | Current Version | Previous Version | Text Only | Print | Product List | Glossary Off
Versions: 1 2 3 4 5 6 7 8 9 10 11 12 13 14 15 16 17 18 19 20 21 22 23

000
FTUS43 KFSD 050534
TAFFSD
TAF
KFSD 050534Z 0506/0606 16008KT P6SM FEW120 BKN250
     FM051000 17010KT P6SM BKN090
     FM051400 17013G19KT P6SM BKN120
     FM051900 17018G26KT P6SM FEW040 SCT080
     FM060100 16014G19KT P6SM SCT040 BKN200=

USA.gov is the U.S. government's official web portal to all federal, state and local government web resources and services.